SCP
0 0 0 0 1 1 1 1 1 2 1 1 1 1 1 1 1 1 1 0 0 0 0 0 0 0 0 0 0 0 0 0 0 0 0 0 0 0 0 0 0 0 0
0 0 0 0 1 1 1 1 1 1 1 1 1 1 1 2 2 1 1 1 0 0 0 0 0 0 0 0 0 0 0 0 0 0 0 0 0 0 0 0 0 0 0
0 0 0 0 0 0 0 0 1 1 1 1 0 0 1 1 2 1 1 1 0 0 0 0 0 0 0 0 0 0 0 0 0 0 0 0 0 0 0 0 0 0 0
0 0 0 0 0 0 0 0 0 0 0 0 0 0 0 1 1 1 1 1 0 0 0 0 0 0 0 0 0 0 0 0 0 0 0 0 0 0 0 0 0 0 0
0 0 0 0 0 0 0 0 0 0 0 0 0 0 0 0 0 0 0 0 0 0 0 0 0 0 0 0 0 0 0 0 0 0 0 0 0 0 0 0 0 0 0
0 0 0 0 0 0 0 0 0 0 0 0 0 0 0 0 0 0 0 0 0 0 0 0 0 0 0 0 0 0 0 0 0 0 0 0 0 0 0 0 0 0 0
0 0 0 0 0 0 0 0 0 0 0 0 0 0 0 0 0 0 0 0 0 0 0 0 0 0 0 0 0 0 0 0 0 0 0 0 0 0 0 0 0 0 0
0 0 0 0 0 0 0 0 0 0 0 0 0 0 0 0 0 0 0 0 0 0 0 0 0 0 0 0 0 0 0 0 0 0 0 0 0 0 0 0 0 0 0
0 0 0 0 0 0 0 0 0 0 0 0 0 0 0 0 0 0 0 0 0 0 0 0 0 0 0 0 0 0 0 0 0 0 0 0 0 0 0 0 0 0 0
0 0 0 0 0 0 0 0 0 0 0 0 0 0 0 0 0 0 0 0 0 0 0 0 0 0 0 0 0 0 0 0 0 0 0 0 0 0 0 0 0 0 0
0 0 0 0 0 0 0 0 0 0 0 0 0 0 0 0 0 0 0 0 0 0 0 0 0 0 0 0 0 0 0 0 0 0 0 0 0 0 0 0 0 0 0
0 0 0 0 0 0 0 0 0 0 0 0 0 0 0 0 0 0 0 0 0 0 0 0 0 0 0 0 0 0 0 0 0 0 0 0 0 0 0 0 0 0 0
0 0 0 0 0 0 0 0 0 0 0 0 0 0 0 0 0 0 0 0 0 0 0 0 0 0 0 0 0 0 0 0 0 0 0 0 0 0 0 0 0 0 0
0 0 0 0 0 0 0 0 0 0 0 0 0 0 0 0 0 0 0 0 0 0 0 0 0 0 0 0 0 0 0 0 0 0 0 0 0 0 0 0 0 0 0
0 0 0 0 0 0 0 0 0 0 0 0 0 0 0 0 0 0 0 0 0 0 0 0 0 0 0 0 0 0 0 0 0 0 0 0 0 0 0 0 0 0 0
0 0 0 0 0 0 0 0 0 0 0 0 0 0 0 0 0 0 0 0 0 0 0 0 0 0 0 0 0 0 0 0 0 0 0 0 0 0 0 0 0 0 0
0 0 0 0 0 0 0 0 0 0 0 0 0 0 0 0 0 0 0 0 0 0 0 0 0 0 0 0 0 0 0 0 0 0 0 0 0 0 0 0 0 0 0
0 0 0 0 0 0 0 0 0 0 0 0 0 0 0 0 0 0 0 0 0 0 0 0 0 0 0 0 0 0 0 0 0 0 0 0 0 0 0 0 0 0 0
0 0 0 0 0 0 0 0 0 0 0 0 0 0 0 0 0 0 0 0 0 0 0 0 0 0 0 0 0 0 0 0 0 0 0 0 0 0 0 0 0 0 0
0 0 0 0 0 0 0 0 0 0 0 0 0 0 0 0 0 0 0 0 0 0 0 0 0 0 0 0 0 0 0 0 0 0 0 0 0 0 0 0 0 0 0
0 0 0 0 0 0 0 0 0 0 0 0 0 0 0 0 0 0 0 0 0 0 0 0 0 0 0 0 0 0 0 0 0 0 0 0 0 0 0 0 0 0 0
0 0 0 0 0 0 0 0 0 0 0 0 0 0 0 0 0 0 0 0 0 0 0 0 0 0 0 0 0 0 0 0 0 0 0 0 0 0 0 0 0 0 0
0 0 0 0 0 0 0 0 0 0 0 0 0 0 0 0 0 0 0 0 0 0 0 0 0 0 0 0 0 0 0 0 0 0 0 0 0 0 0 0 0 0 0
0 0 0 0 0 0 0 0 0 0 0 0 0 0 0 0 0 0 0 0 0 0 0 0 0 0 0 0 0 0 0 0 0 0 0 0 0 0 0 0 0 0 0
0 0 0 0 0 0 0 0 0 0 0 0 0 0 0 0 0 0 0 0 0 0 0 0 0 0 0 0 0 0 0 0 0 0 0 0 0 0 0 0 0 0 0
0 0 0 0 0 0 0 0 0 0 0 0 0 0 0 0 0 0 0 0 0 0 0 0 0 0 0 0 0 0 0 0 0 0 0 0 0 0 0 0 0 0 0
Wind_Speed
6 6 6 7 7 7 7 8 8 7 8 9 9 9 9 9 8 8 7 8 8 7 6 7 6 5 4 3 3 3 3 3 3 1 2 2 2 2 1 1 2 2 3
5 5 5 5 5 6 7 6 7 7 7 8 8 8 8 8 9 9 9 9 9 9 8 8 8 6 6 4 4 4 3 3 3 3 1 1 1 1 1 1 2 2 3
5 5 5 6 6 6 6 5 6 6 7 7 8 8 8 9 9 9 9 8 8 8 9 9 9 9 7 5 5 4 3 3 3 3 2 1 0 0 1 1 2 2 4
4 5 5 5 5 5 5 5 6 6 7 7 7 7 7 7 8 8 8 8 8 7 7 7 8 8 8 8 6 6 5 4 3 3 2 1 0 0 0 1 2 2 4
5 5 5 4 4 4 4 5 5 5 6 6 6 6 6 6 7 9 9 9 9 8 7 6 6 7 8 7 6 6 6 5 4 3 2 1 1 0 1 1 2 3 4
6 5 4 5 4 4 5 5 5 5 5 6 6 7 6 5 10 13 11 10 10 10 9 7 7 7 8 10 10 9 8 6 5 3 2 2 2 1 1 1 2 2 3
6 5 5 5 6 5 6 6 6 6 6 6 6 6 6 8 13 14 13 10 9 9 9 9 6 5 7 7 8 8 5 5 5 4 3 3 2 2 1 1 2 2 4
6 6 6 6 6 6 6 6 6 5 6 6 6 6 6 8 13 15 14 9 8 8 8 8 9 8 7 8 7 5 4 3 3 2 2 2 1 1 2 2 2 3 4
7 6 6 7 7 6 6 6 5 5 5 5 5 6 7 8 13 15 14 8 8 8 7 6 7 8 11 12 8 6 4 2 2 2 2 1 1 1 1 1 0 1 3
7 7 6 7 7 7 7 6 5 5 6 6 5 5 6 7 12 15 14 7 8 7 6 5 6 7 12 12 7 6 5 4 3 2 1 1 1 1 2 2 2 1 2
6 6 6 6 6 7 6 5 6 6 7 6 6 5 5 5 10 13 13 6 8 8 6 5 5 11 11 11 8 5 5 4 3 3 2 1 1 1 1 1 1 2 3
7 7 7 6 5 6 7 7 6 7 8 7 6 5 3 4 6 9 12 10 9 7 6 5 6 12 11 10 7 6 6 5 3 2 2 2 2 2 1 1 2 3 4
8 7 7 7 6 6 7 8 7 6 6 6 5 5 4 3 5 9 10 11 10 5 5 9 10 11 9 6 7 7 4 3 3 3 3 3 2 1 1 1 2 3 4
8 7 7 7 6 6 5 5 5 6 6 6 6 6 5 4 4 4 4 5 7 6 5 6 9 9 6 5 4 4 3 3 3 3 3 2 1 1 1 1 2 2 3
8 7 6 6 6 6 5 4 4 3 4 6 5 6 7 6 7 10 7 6 5 6 6 4 3 3 4 3 3 3 3 3 3 3 2 2 2 2 2 2 2 2 3
7 6 5 5 5 5 5 5 6 5 6 5 6 6 3 5 10 12 11 10 11 13 7 4 5 5 5 5 5 4 4 4 4 3 3 3 3 3 3 2 2 3 4
6 6 5 5 5 5 5 5 5 5 6 6 6 7 6 8 10 11 11 10 11 11 5 4 5 5 5 5 5 5 5 4 4 4 4 4 4 3 3 3 3 3 4
6 6 5 4 4 4 4 4 4 5 4 3 3 5 6 7 8 9 10 8 5 6 4 4 5 5 4 4 5 4 4 4 4 4 4 4 4 4 4 4 4 4 4
6 4 4 4 4 4 4 4 4 4 4 3 3 3 3 5 6 7 7 4 4 4 4 4 4 4 4 4 4 4 4 4 4 4 4 5 4 4 5 5 4 5 5
5 6 5 4 4 4 4 4 3 3 3 3 3 3 3 2 2 3 3 2 3 3 3 4 3 3 3 4 4 4 4 4 5 5 5 5 4 5 5 6 5 5 5
4 4 5 4 3 3 3 3 3 3 3 3 2 3 6 3 3 3 3 3 3 3 3 3 3 3 3 3 3 4 5 4 5 5 5 5 4 4 4 5 5 5 4
4 4 3 3 3 3 3 2 2 2 3 3 2 2 4 2 2 2 3 3 2 2 2 2 2 3 3 4 4 4 5 5 5 5 5 5 5 5 4 4 5 4 4
4 4 4 3 3 3 3 2 2 2 2 2 2 2 2 2 2 2 3 2 2 2 2 2 2 2 2 3 3 4 5 6 5 5 5 5 5 5 5 5 6 5 5
3 4 3 3 2 2 2 2 2 1 2 2 2 2 2 2 3 3 3 2 2 2 2 3 3 5 6 4 4 4 4 4 4 4 7 6 6 5 5 5 6 6 6
3 3 3 2 2 2 1 2 2 2 2 2 2 2 2 3 3 3 3 3 3 3 4 4 4 5 7 8 6 5 7 8 6 5 5 5 6 6 6 6 6 5 6
2 2 2 1 1 1 2 2 2 2 2 2 3 3 3 3 3 3 3 3 3 4 4 4 5 6 7 6 7 9 9 10 10 9 6 6 7 7 7 6 7 6 6
Wind_Direction
205 204 202 207 205 203 203 201 193 188 183 184 182 179 179 178 174 173 172 166 166 161 155 156 152 144 139 131 124 123 119 122 146 116 86 100 111 98 48 17 347 337 325
194 195 198 201 199 198 199 194 185 183 179 176 171 172 174 172 170 171 170 169 166 164 161 154 152 145 137 135 131 127 122 112 132 146 100 88 105 125 74 348 334 330 319
178 185 191 193 195 196 190 180 173 171 168 166 167 171 172 171 168 167 165 162 161 161 160 159 154 147 143 140 134 131 123 107 102 129 140 102 89 116 44 322 313 309 310
175 182 191 192 187 183 173 165 164 161 161 160 159 161 163 161 159 153 151 149 145 142 145 145 147 152 152 148 142 138 130 120 116 126 143 166 212 261 94 302 311 305 304
176 184 188 174 159 154 153 148 144 144 148 145 142 142 143 149 154 153 149 146 141 135 127 126 131 135 141 144 145 146 142 140 140 145 159 163 192 184 240 266 299 308 295
178 180 164 152 146 144 139 135 135 135 135 135 142 147 149 152 155 154 148 145 145 143 139 130 126 128 133 132 133 141 148 152 159 162 174 190 205 205 214 274 307 327 303
172 163 156 152 149 146 140 138 142 143 137 139 143 145 147 152 154 150 144 140 143 145 145 143 138 135 135 131 133 135 137 146 161 163 178 194 193 197 199 248 269 276 275
166 162 157 154 151 145 143 146 143 139 143 144 144 144 140 149 152 147 139 133 133 138 143 148 147 147 150 144 139 138 138 143 157 152 170 183 187 181 190 222 261 284 280
173 169 163 157 153 151 151 148 140 136 134 133 136 141 143 148 153 149 141 132 129 130 132 138 144 148 159 156 148 150 152 160 170 164 174 194 228 246 210 119 308 308 290
176 165 156 154 154 156 150 140 131 130 129 125 124 132 141 146 155 152 145 135 135 133 131 134 145 153 163 163 156 158 170 177 158 163 182 223 231 240 226 184 193 227 266
144 141 142 145 147 143 136 132 131 128 126 125 124 118 124 139 157 157 154 142 146 146 151 154 161 165 167 169 165 165 178 160 157 165 181 200 200 197 206 199 210 227 237
131 133 133 133 133 134 134 131 133 136 135 135 130 122 116 130 151 160 161 155 150 149 157 156 161 168 171 174 174 173 169 151 141 160 193 214 218 221 226 242 257 260 256
129 131 130 128 126 133 139 142 142 143 143 146 146 147 146 142 154 159 160 156 153 141 144 154 159 169 171 176 180 174 160 153 164 189 214 223 218 219 227 259 270 276 275
130 130 131 133 131 130 132 141 148 154 153 154 158 158 154 154 157 156 151 146 144 134 131 142 155 167 168 158 161 177 167 173 186 206 219 224 213 221 231 231 246 275 283
126 127 129 131 134 131 122 126 136 142 162 163 167 163 164 175 184 174 162 159 153 146 131 124 140 155 172 174 172 175 177 184 203 213 211 217 225 232 239 232 233 241 252
128 130 131 131 130 128 124 106 98 103 109 123 140 146 144 154 160 170 174 172 167 161 147 163 178 185 191 191 192 194 198 206 207 204 211 219 225 230 239 236 237 238 256
122 124 123 126 130 133 135 135 127 99 96 106 124 138 143 151 160 169 173 174 177 174 177 182 190 196 197 194 196 199 204 203 197 203 214 219 221 226 233 239 241 248 257
105 106 111 117 123 128 132 133 137 140 136 113 110 129 139 149 160 168 172 166 181 191 197 196 200 199 198 199 200 203 204 196 199 209 215 217 216 221 230 236 238 242 254
99 103 103 108 110 114 117 120 123 130 135 134 124 123 124 146 157 171 171 176 187 198 202 205 205 202 203 203 204 203 203 205 206 207 213 215 214 216 229 235 239 246 248
93 97 101 109 112 114 118 124 130 135 140 148 158 155 138 131 161 179 187 188 197 203 203 208 209 208 206 206 206 204 207 211 210 212 215 216 214 216 228 233 234 238 242
94 95 96 101 105 116 124 133 139 145 154 159 167 179 176 173 184 191 199 205 208 211 211 212 211 210 210 209 206 208 212 217 216 214 214 213 211 218 225 230 234 235 243
97 100 97 102 106 109 114 120 130 143 154 156 157 192 197 173 183 195 207 213 212 210 206 205 213 212 207 208 204 206 213 219 219 215 216 214 212 216 221 227 232 236 238
95 101 101 100 103 110 112 118 132 147 157 164 170 180 193 202 206 211 218 219 211 212 210 207 220 228 224 219 213 209 216 221 216 209 211 213 213 214 215 223 227 233 237
90 100 106 108 109 121 132 140 147 160 171 179 188 201 210 216 224 230 230 227 221 221 219 218 224 231 232 228 224 224 227 229 216 211 209 212 214 214 214 223 227 231 237
88 98 108 117 128 140 150 161 172 184 193 203 209 217 223 226 231 234 233 229 227 230 234 232 231 233 235 234 232 231 237 241 231 210 205 209 215 214 215 221 225 228 232
92 102 114 130 149 163 177 193 204 208 213 220 223 225 228 232 236 236 235 232 232 236 238 238 239 240 240 238 240 242 241 241 234 220 206 207 212 217 213 219 222 224 228